Wind_Speed
24 23 22 21 20 20 20 21 22 22 23 23 24 25 26 26 27 27 28 28 29 29 30 30 30 31 32 33 34 35 36 37 38 39 40 40 40 39 38 37 37 37
24 23 22 21 21 21 22 22 23 24 25 25 26 27 27 28 28 28 28 29 30 30 30 31 31 32 33 35 35 36 37 38 40 41 42 42 41 40 38 37 37 37
24 22 21 21 21 22 23 24 25 25 26 27 28 28 28 28 29 29 29 30 30 30 30 31 33 34 35 35 36 37 39 40 42 43 43 43 41 39 38 38 37 38
23 22 22 22 23 24 25 26 26 27 27 28 28 29 29 29 29 29 30 30 30 31 31 33 34 35 36 36 36 38 40 42 43 44 44 43 41 39 38 38 38 39
23 23 23 24 24 25 26 27 27 28 28 29 29 29 29 30 30 30 31 31 31 31 33 34 35 36 36 36 37 39 40 42 44 45 45 43 41 40 39 39 39 40
24 24 24 25 26 27 27 28 28 29 29 29 29 30 30 30 31 31 31 31 32 33 34 35 36 36 36 37 38 39 41 43 46 46 45 43 42 40 40 40 40 39
24 24 25 26 27 27 28 28 29 30 30 30 30 30 31 31 32 32 32 32 33 34 35 36 36 36 37 37 38 39 42 45 47 47 46 43 42 40 39 39 39 39
25 25 26 27 27 28 28 29 30 30 30 30 31 31 32 32 33 32 32 33 34 35 35 36 36 36 37 37 38 41 44 46 48 47 45 43 41 39 39 38 38 37
26 27 27 28 28 28 29 30 31 31 31 31 32 32 33 33 33 33 33 34 35 36 36 36 37 37 37 37 39 40 43 46 47 45 44 42 40 38 37 37 37 36
28 28 28 28 28 29 30 31 32 32 32 32 33 33 33 34 34 34 34 35 36 36 37 37 38 37 37 38 39 39 42 46 46 43 42 41 39 37 36 35 35 34
28 28 29 29 29 30 32 33 33 33 33 33 33 34 34 35 35 35 36 36 37 37 38 38 38 37 37 37 38 40 43 45 44 42 41 39 37 36 35 34 33 33
29 29 30 30 31 32 33 34 34 33 33 33 34 35 35 36 36 37 37 38 38 38 39 38 38 36 36 37 39 41 43 44 42 41 40 37 36 35 33 32 32 32
30 30 30 31 32 33 34 35 34 34 34 34 35 36 37 37 38 38 38 38 39 39 39 39 38 37 37 38 39 42 44 43 41 39 37 35 34 33 32 32 32 32
30 30 31 32 33 35 35 36 35 35 35 36 37 37 38 38 39 39 39 39 40 40 40 39 38 38 38 39 41 43 44 42 40 37 35 34 33 32 32 32 31 32
30 32 33 34 35 36 36 36 36 36 36 37 38 38 38 39 40 40 40 40 41 41 41 40 39 39 39 40 42 43 43 41 38 35 34 33 32 32 32 32 32 32
32 33 34 35 36 36 37 37 37 37 38 39 39 39 39 40 40 40 41 41 42 42 41 41 40 40 40 40 42 43 42 39 36 34 33 32 31 32 32 32 33 33
32 33 34 35 36 36 37 37 37 38 39 40 40 40 40 40 41 41 42 42 43 42 42 42 41 40 40 41 42 42 40 38 35 34 32 31 31 32 33 33 33 34
32 34 35 36 37 37 37 38 38 40 40 40 41 40 40 41 41 42 42 43 43 42 42 42 41 40 41 42 42 40 38 37 35 33 31 31 32 32 33 34 34 34
34 36 37 37 37 37 38 39 40 41 41 41 41 40 41 42 42 43 43 43 43 42 41 41 41 41 42 42 41 39 37 36 34 32 32 31 32 33 34 35 35 35
36 38 39 38 39 39 39 40 41 41 41 41 41 41 42 43 43 43 43 43 42 42 41 41 41 42 42 40 39 38 36 35 33 33 33 33 34 35 35 36 36 35
38 40 40 40 41 42 42 42 42 42 42 42 42 42 42 43 43 43 44 43 43 42 41 42 42 41 40 39 38 36 35 34 34 33 34 34 35 36 36 37 37 36
39 40 41 42 43 43 43 43 42 42 42 41 42 42 42 42 43 44 44 43 42 42 42 43 41 40 39 38 36 35 35 35 34 34 35 36 36 37 37 37 38 38
40 41 42 43 43 43 43 41 40 39 39 39 40 40 41 41 42 43 43 42 42 43 43 42 39 38 37 36 35 35 35 35 35 36 37 37 38 38 38 38 39 39
41 42 43 43 43 42 40 39 38 38 38 39 39 39 40 41 42 43 43 43 42 42 41 39 37 36 35 35 35 35 36 36 36 37 38 38 38 38 38 39 40 40
41 42 42 42 41 40 39 39 39 39 39 39 39 39 39 40 41 42 41 40 39 38 38 36 35 34 35 35 35 36 36 37 38 39 39 39 39 39 40 41 41 40
40 41 41 40 39 39 39 39 38 38 38 38 37 37 38 38 39 38 38 37 36 36 35 34 33 34 34 36 36 37 37 38 39 40 40 39 39 40 41 41 41 40
Wind_Direction
239 238 238 238 240 244 247 250 253 256 258 261 264 266 268 269 271 273 276 279 282 284 287 290 292 295 298 301 303 304 305 307 309 311 313 314 314 313 312 312 311 312
238 238 238 240 243 247 250 253 255 258 260 262 265 266 268 270 273 275 279 282 284 286 289 292 295 298 301 303 304 306 307 309 311 313 314 315 314 314 313 313 313 314
237 238 239 242 245 249 252 255 257 259 261 263 265 267 269 272 275 278 281 284 285 287 290 294 298 301 303 304 305 307 309 311 313 315 316 316 315 314 314 314 315 316
238 239 241 244 247 250 254 256 258 261 262 264 266 268 271 274 277 280 283 284 286 288 292 297 299 301 303 305 306 309 311 313 315 317 318 317 316 315 314 315 315 316
238 240 243 246 250 253 256 258 259 261 262 264 267 270 273 276 279 282 284 285 287 290 295 298 300 302 303 305 308 311 313 314 316 317 317 317 317 316 315 315 315 316
240 243 247 250 253 255 256 257 259 261 263 266 269 272 275 278 281 283 284 286 289 293 296 298 300 302 305 307 309 311 313 314 315 315 316 318 318 317 316 315 315 315
244 248 251 253 254 255 256 258 260 263 266 269 272 275 277 279 282 283 285 288 291 294 296 298 301 303 305 307 308 311 313 313 314 314 316 318 319 317 315 315 314 314
248 251 253 254 255 256 258 260 262 265 268 271 273 275 278 279 282 284 286 289 291 294 296 298 301 303 304 306 309 311 312 312 313 314 317 319 318 316 314 313 312 312
251 254 254 255 257 258 260 262 264 266 269 271 273 275 278 280 282 284 287 289 292 294 296 297 299 301 303 305 307 309 310 312 313 315 317 318 316 313 311 310 310 310
253 255 257 258 259 261 262 264 265 267 269 271 274 276 278 280 283 285 288 290 292 293 294 296 298 299 301 304 305 308 311 313 314 314 315 314 311 309 309 308 307 309
256 258 259 261 262 263 264 265 266 268 270 272 275 277 279 281 284 286 288 289 291 292 293 294 295 297 300 302 305 308 311 312 312 312 311 309 307 306 306 305 305 307
257 259 261 262 264 264 265 266 267 269 271 274 276 278 280 282 284 286 287 288 289 290 291 292 294 296 299 302 305 308 309 310 309 308 307 305 304 303 302 302 304 305
258 261 263 264 265 265 266 267 268 270 273 275 277 278 280 282 284 285 286 286 288 289 290 291 292 295 298 301 304 306 307 307 306 304 303 302 301 300 300 301 302 303
261 263 264 265 265 266 266 268 270 272 274 276 277 279 281 282 283 283 283 285 287 288 288 289 291 294 298 300 303 305 305 304 302 302 301 299 298 298 298 299 301 301
262 264 265 266 267 267 268 270 272 274 275 276 277 279 280 280 281 281 283 285 286 286 286 288 290 293 297 299 301 302 302 300 300 299 298 297 296 295 296 298 299 299
263 264 266 267 269 270 271 272 273 274 275 276 277 278 278 279 280 281 283 284 284 284 285 287 289 293 295 297 299 300 298 297 298 297 296 294 294 294 295 297 297 297
264 265 267 269 270 271 271 272 273 274 274 275 276 277 278 279 280 281 282 282 282 282 284 286 289 292 294 297 297 297 296 296 295 294 294 293 292 293 294 295 296 295
266 266 266 268 269 270 271 272 272 273 273 275 276 277 278 279 279 280 279 279 280 281 283 286 288 291 294 295 294 293 294 294 293 293 293 292 291 292 294 294 294 294
267 265 264 267 269 270 271 271 271 272 273 274 276 277 277 277 277 277 277 278 279 281 282 285 287 290 292 292 291 291 292 292 291 292 292 292 292 292 293 293 293 293
269 268 266 267 268 268 268 268 269 271 272 273 274 275 275 275 275 276 276 277 278 279 281 284 287 289 289 288 289 290 290 290 290 291 292 292 292 292 293 292 292 293
270 270 268 267 267 266 266 266 267 269 270 272 273 273 274 274 273 273 274 275 276 278 280 283 285 285 285 286 287 288 288 289 290 291 292 291 291 292 292 292 293 293
270 268 267 266 266 265 265 265 266 268 269 270 271 271 271 270 270 271 272 273 275 277 279 281 282 282 283 285 285 285 286 288 290 291 291 291 291 292 292 293 294 294
268 265 264 264 264 264 264 265 266 267 268 268 268 268 267 267 268 269 270 271 273 275 278 279 280 280 281 283 284 284 286 288 289 290 290 290 291 291 292 293 294 294
264 263 263 263 262 263 264 266 267 267 267 267 266 265 264 264 264 266 268 270 272 275 276 277 278 279 280 281 283 284 285 287 288 288 289 290 291 291 292 293 293 294
261 262 262 262 263 265 266 267 268 268 267 265 264 263 262 262 264 266 269 271 272 274 275 276 278 278 279 281 282 283 284 285 286 287 288 290 291 291 291 292 292 294
261 262 263 264 266 267 267 267 267 266 265 265 264 264 264 265 266 268 270 272 273 274 275 277 278 279 279 280 281 282 283 284 285 286 288 290 290 290 290 291 292 294
Height
3141 3142 3143 3143 3144 3144 3144 3144 3144 3144 3144 3144 3145 3145 3145 3145 3144 3144 3143 3143 3142 3142 3141 3139 3138 3136 3135 3134 3133 3131 3130 3129 3127 3126 3124 3122 3121 3120 3118 3117 3115 3113
3139 3139 3140 3140 3141 3141 3141 3141 3141 3141 3141 3141 3142 3142 3142 3142 3141 3141 3140 3139 3139 3138 3137 3136 3134 3133 3131 3130 3129 3128 3127 3125 3123 3122 3120 3118 3117 3115 3114 3112 3111 3109
3135 3136 3137 3137 3137 3138 3138 3138 3138 3138 3138 3138 3139 3139 3139 3138 3138 3137 3136 3136 3135 3135 3133 3132 3130 3128 3127 3126 3125 3124 3123 3121 3119 3117 3116 3114 3112 3111 3110 3108 3106 3105
3133 3133 3134 3134 3134 3134 3134 3135 3135 3135 3135 3135 3136 3136 3135 3135 3134 3133 3133 3132 3132 3131 3129 3127 3126 3125 3124 3123 3121 3120 3118 3117 3115 3113 3112 3110 3109 3107 3106 3104 3103 3101
3130 3130 3130 3131 3131 3131 3131 3132 3132 3132 3132 3132 3132 3132 3132 3131 3130 3130 3129 3129 3128 3126 3125 3123 3122 3121 3120 3119 3117 3116 3114 3113 3111 3110 3108 3106 3105 3103 3102 3100 3099 3097
3126 3127 3127 3127 3128 3128 3128 3128 3128 3128 3129 3129 3129 3128 3128 3127 3127 3126 3126 3125 3124 3122 3121 3119 3118 3117 3116 3115 3113 3112 3110 3109 3107 3106 3104 3103 3101 3099 3098 3096 3095 3093
3123 3123 3124 3124 3124 3124 3124 3125 3125 3125 3125 3125 3125 3125 3124 3124 3123 3123 3122 3121 3119 3118 3117 3115 3114 3113 3112 3111 3109 3108 3106 3105 3103 3102 3101 3099 3097 3095 3094 3092 3090 3089
3120 3120 3120 3120 3120 3121 3121 3121 3121 3121 3121 3121 3121 3121 3120 3120 3119 3119 3118 3116 3115 3114 3113 3112 3110 3109 3108 3107 3106 3104 3102 3101 3100 3098 3097 3095 3093 3091 3090 3088 3086 3084
3116 3116 3116 3116 3117 3117 3117 3117 3117 3117 3117 3117 3117 3116 3116 3116 3115 3114 3113 3112 3111 3110 3109 3108 3107 3106 3105 3103 3102 3100 3098 3097 3096 3094 3092 3091 3089 3088 3086 3084 3082 3080
3112 3112 3113 3113 3113 3113 3113 3113 3113 3113 3113 3112 3112 3112 3112 3111 3111 3110 3109 3108 3107 3106 3105 3104 3103 3102 3101 3099 3098 3096 3094 3093 3092 3090 3088 3087 3085 3084 3082 3080 3078 3076
3108 3108 3109 3109 3109 3109 3109 3109 3109 3109 3108 3108 3108 3108 3107 3107 3106 3105 3104 3104 3103 3102 3101 3100 3099 3098 3097 3095 3094 3092 3090 3089 3088 3086 3085 3083 3081 3080 3078 3076 3074 3072
3104 3104 3104 3105 3105 3105 3105 3104 3104 3104 3104 3103 3103 3103 3103 3102 3101 3101 3100 3100 3099 3098 3097 3096 3095 3094 3092 3091 3089 3088 3087 3085 3084 3082 3081 3079 3077 3076 3074 3073 3071 3069
3100 3100 3100 3100 3100 3100 3100 3100 3099 3099 3099 3099 3099 3098 3098 3097 3097 3096 3096 3095 3095 3094 3093 3092 3091 3089 3088 3087 3085 3084 3083 3081 3080 3078 3077 3075 3073 3072 3070 3069 3067 3065
3095 3095 3095 3096 3096 3095 3095 3094 3094 3094 3094 3094 3094 3094 3094 3093 3092 3092 3091 3091 3090 3089 3088 3087 3086 3085 3084 3083 3081 3080 3079 3077 3076 3074 3072 3071 3069 3068 3066 3065 3063 3061
3090 3090 3090 3090 3090 3090 3090 3089 3090 3090 3090 3089 3089 3089 3089 3088 3088 3087 3087 3086 3086 3085 3084 3083 3082 3081 3080 3078 3077 3075 3074 3073 3071 3070 3068 3067 3065 3063 3062 3061 3059 3057
3085 3085 3085 3085 3085 3085 3085 3085 3085 3085 3085 3085 3085 3085 3085 3084 3083 3083 3082 3082 3081 3080 3079 3078 3077 3076 3075 3073 3072 3071 3070 3068 3067 3065 3064 3063 3061 3059 3058 3057 3055 3054
3081 3081 3081 3080 3080 3081 3081 3081 3081 3080 3080 3080 3080 3080 3080 3079 3079 3078 3078 3077 3076 3075 3074 3073 3072 3071 3070 3069 3068 3067 3065 3064 3062 3061 3060 3058 3057 3055 3054 3052 3051 3049
3076 3076 3076 3076 3076 3076 3076 3076 3076 3075 3076 3076 3076 3076 3075 3074 3074 3074 3073 3072 3071 3070 3069 3068 3067 3066 3065 3064 3063 3062 3061 3059 3058 3057 3055 3054 3053 3051 3050 3048 3047 3045
3071 3071 3071 3071 3071 3072 3071 3071 3070 3071 3071 3071 3071 3071 3070 3070 3069 3069 3068 3067 3066 3066 3065 3064 3063 3061 3060 3059 3058 3057 3056 3054 3053 3052 3051 3050 3048 3047 3046 3044 3042 3041
3066 3066 3066 3066 3066 3066 3066 3065 3066 3066 3066 3066 3066 3066 3065 3065 3064 3063 3063 3062 3062 3061 3060 3059 3058 3056 3055 3054 3053 3052 3051 3050 3049 3047 3046 3045 3044 3043 3041 3039 3038 3037
3061 3061 3061 3061 3061 3061 3060 3060 3060 3061 3061 3061 3060 3060 3060 3060 3059 3058 3058 3057 3057 3056 3055 3054 3053 3052 3050 3050 3049 3047 3046 3045 3044 3043 3042 3041 3039 3038 3037 3035 3033 3032
3056 3056 3056 3056 3056 3055 3055 3055 3055 3055 3055 3055 3055 3055 3055 3054 3054 3053 3053 3052 3052 3051 3049 3049 3048 3047 3045 3045 3044 3042 3041 3040 3040 3039 3037 3036 3035 3034 3032 3030 3028 3027
3051 3051 3051 3050 3050 3050 3050 3050 3050 3050 3050 3050 3049 3049 3049 3049 3048 3048 3047 3047 3046 3045 3044 3044 3043 3042 3041 3040 3039 3038 3036 3035 3035 3034 3033 3032 3031 3029 3027 3025 3023 3022
3045 3045 3045 3045 3045 3045 3045 3045 3045 3045 3045 3044 3044 3044 3044 3043 3043 3042 3041 3041 3041 3040 3039 3039 3039 3037 3036 3035 3034 3033 3031 3031 3030 3029 3028 3027 3026 3024 3022 3020 3019 3017
3039 3040 3040 3040 3040 3040 3041 3040 3040 3040 3039 3039 3038 3038 3038 3038 3037 3036 3036 3036 3036 3035 3034 3034 3034 3033 3031 3030 3029 3028 3026 3026 3025 3023 3022 3022 3021 3019 3017 3015 3014 3013
3035 3036 3036 3036 3036 3036 3035 3035 3034 3034 3034 3033 3033 3033 3033 3032 3032 3031 3031 3031 3031 3030 3029 3029 3029 3028 3026 3025 3024 3023 3022 3021 3020 3018 3017 3017 3015 3013 3012 3010 3009 3008